Regional Weather Roundup
Issued by NWS Grand Forks, ND

Home | Current Version | Previous Version | Graphics & Text | Print | Product List | Glossary On
Versions: 1 2 3 4 5 6 7 8 9 10 11 12 13 14 15 16 17 18 19 20 21 22 23 24 25 26 27 28 29 30 31 32 33 34 35 36 37 38 39 40 41 42 43 44 45 46 47 48 49 50
000
ASUS43 KFGF 221131
RWRFGF
PRAIRIE TO PINES  WEATHER ROUNDUP
NATIONAL WEATHER SERVICE EASTERN NORTH DAKOTA/GRAND FORKS ND
600 AM CDT FRI SEP 22 2017

 **SATELLITE DATA USED TO AUGMENT SKY COVER AT AUTOMATED STATIONS**
 *****  WEATHER ACROSS EASTERN NORTH DAKOTA  *****

CITY           SKY/WX    TMP DP  RH WIND       PRES   REMARKS
GRAND FORKS    FAIR      56  53  90 N14       29.79R
GRAND FRKS AFB FAIR      55  51  85 N13       29.81R
DEVILS LAKE    FAIR      51  48  89 N15G23    29.85F
FARGO          MOCLDY    65  65 100 N3        29.74R
WAHPETON ARPT  FAIR      63  55  77 E6        29.72S
$$

 ***** WEATHER ACROSS CENTRAL AND WESTERN NORTH DAKOTA  *****

CITY           SKY/WX    TMP DP  RH WIND       PRES   REMARKS
BISMARCK       MOCLDY    54  45  71 N17G25    29.81R
MINOT          FAIR      48  40  73 N10       29.92R
JAMESTOWN      FAIR      56  50  80 N15G22    29.77S
MINOT AFB      FAIR      47  40  75 N13       29.92R
GARRISON         N/A     50  39  66 NE17G26   29.86F
WILLISTON      LGT RAIN  46  38  73 N14       29.94S
DICKINSON      CLOUDY    50  38  63 NE18G24   29.86R
HETTINGER      CLOUDY    51  38  60 N24       29.82R
$$

 *****  OTHER AIRPORT OBSERVATIONS IN OUR AREA  *****

CITY           SKY/WX    TMP DP  RH WIND       PRES   REMARKS
WALHALLA       FAIR     N/A N/A N/A NW16      29.89R
GRAFTON AIRPOR FAIR      55  52  88 N16       29.86R
VALLEY CITY AR PTSUNNY   55  55 100 N10       29.78R
CANDO          FAIR      48  48 100 N15G23    29.89F
CAVALIER APRT  FAIR      54  48  82 N12       29.88R
GWINNER        CLOUDY    66  66 100 MISG      29.71S FOG
SHEYENNE NWR     N/A     66  66 100 N7        29.95S
ROLLA          FAIR      46  43  87 N15       29.92S
 ***** THE ABOVE OBSERVATIONS ARE NON NWS ARE NOT QUALITY
       CONTROLLED AND MAY MIS-REPORT RAIN FOR SNOW...
$$

  *****  WEATHER ACROSS NORTHERN MINNESOTA  *****

CITY           SKY/WX    TMP DP  RH WIND       PRES   REMARKS
FLAG ISLAND    FAIR      61  57  88 CALM      29.81F
WARROAD        FAIR      55  52  88 CALM      29.83F
ROSEAU         FAIR      55  50  82 NW5       29.84R
HALLOCK          N/A     57  52  82 N10       29.84R
THF RVR FALLS  CLOUDY    63  59  87 NE8       29.80R
BAUDETTE       FAIR      60  60 100 E3        29.81F
WASKISH        FAIR      61  61 100 CALM      29.82R FOG
CROOKSTON      CLOUDY    59  57  94 N14       29.79S
STEPHEN NDAWN    N/A     55  54  94 N13         N/A
GREENBUSH NDAW   N/A     55  52  88 N8          N/A
$$
  *****  WEATHER ACROSS CENTRAL AND WEST MINNESOTA  *****

CITY           SKY/WX    TMP DP  RH WIND       PRES   REMARKS
FOSSTON        FAIR      63  61  94 CALM      29.78S
BEMIDJI        FAIR      64  64 100 NE3       29.78F FOG
PARK RAPIDS    MOCLDY    69  67  93 W10       29.77R
ELBOW LAKE     FAIR      66  61  84 SE8       29.73F
WADENA         FAIR      63  63 100 E6        29.78R
DETROIT LAKES  FAIR      68  64  88 CALM      29.77S FOG
MOORHEAD       FAIR      64  64 100 N8        29.74S FOG
FERGUS FALLS   FAIR      64  59  82 E5        29.72S
MORRIS MN      FAIR      72  66  83 E9        29.73F
STAPLES        FAIR      64  64 100 SE8       29.80R
$$
  *****  WEATHER ELSEWHERE ACROSS MINNESOTA  *****

CITY           SKY/WX    TMP DP  RH WIND       PRES   REMARKS
DULUTH         MOCLDY    59  59 100 SE6       29.86F
INTRNTL FALLS  MOCLDY    60  58  92 CALM      29.81F
ELY            FAIR      64  63  94 CALM      29.86R
CLOQUET        FAIR      61  57  88 E3        29.85F THUNDER
WHEATON        FAIR      70  64  83 SE10      29.72S
BRAINERD       TSTM      67  66  97 E5        29.85F FOG
HIBBING        FOG       57  57 100 CALM      29.86R VSB 3/4
ALEXANDRIA     FAIR      68  61  78 SE9       29.79F
SAINT CLOUD    MOCLDY    72  71  97 SE6       29.81R
MINNEAPOLIS    FAIR      73  70  90 SE12      29.82F
$$

  *****  WEATHER ACROSS SOUTH DAKOTA  *****

CITY           SKY/WX    TMP DP  RH WIND       PRES   REMARKS
SIOUX FALLS    FAIR      77  73  87 S15G23    29.73R
BROOKINGS      FAIR      73  71  93 SE13      29.73S
WATERTOWN      FAIR      72  71  97 S10       29.70S
HURON          FAIR      74  71  91 SE14      29.63R
SISSETON         N/A     68  67  96 S5        29.70S
ABERDEEN       FAIR      62  62 100 N8        29.67R
MITCHELL       FAIR      77  71  82 S13       29.65R
PIERRE         FAIR      64  62  93 S5        29.57S
MOBRIDGE       MOCLDY    61  51  70 NE20G28   29.63F
RAPID CITY     NOT AVBL
$$

  *****  SOME WEATHER IN NEARBY STATES *****

CITY           SKY/WX    TMP DP  RH WIND       PRES   REMARKS
GLASGOW MT     CLOUDY    46  34  62 NW3       30.01R
GREAT FALLS MT LGT SNOW  34  32  92 N13       30.03F FOG     WCI  25
CHEYENNE WY    FAIR      46  36  68 VRB3      29.83R
SCOTTSBLUFF NE FAIR      48  40  73 W3        29.77R
OMAHA NE       FAIR      78  70  76 S17       29.83S
DES MOINES IA  FAIR      77  69  76 SE9       29.90S
DAVENPORT IA   FAIR      72  67  84 S7        30.03S
CHICAGO IL     FAIR      74  67  78 CALM      30.05S
EAU CLAIRE WI  CLOUDY    73  68  84 S9        29.90S
LA CROSSE WI   FAIR      75  69  81 S12       29.93R
$$

  *****  SOME NATIONAL WEATHER *****

CITY           SKY/WX    TMP DP  RH WIND       PRES   REMARKS
LA GUARDIA NY  MOCLDY    68  50  52 N15       30.00S
RALEIGH NC     FAIR      63  63 100 CALM      30.08R
ATLANTA GA     FAIR      70  66  87 E8        30.07R
NEW ORLEANS LA FAIR      75  74  96 CALM      29.97R
OKLAHOMA CITY  FAIR      70  68  93 S10       29.91S
ALBUQUERQUE NM FAIR      61  36  39 SE10      29.96S
SALT LAKE CITY CLOUDY    44  40  85 SE6       29.83S
LOS ANGELES CA FAIR      60  52  74 E8        29.83F
BOISE ID       CLOUDY    45  39  79 NW10      29.86R
SEATTLE WA     CLOUDY    52  48  86 SE6       30.02S
$$

*** WEATHER ACROSS MANITOBA...SASKATCHEWAN AND ONTARIO ***
                ***ONTARIO***

CITY           SKY/WX    TMP DP  RH WIND       PRES   REMARKS
GERALDTON      TSTM      61  61 100 NW8       29.95R VSB 3/4
THUNDER BAY    MOCLDY    52  52 100 SW3       29.89F
SIOUX LOOKOUT  PTCLDY    55  55 100 SE7       29.83F
TORONTO        PTCLDY    64  59  82 NE3       30.15R
BIG TROUT LK   MOCLDY    48  48 100 NW2       29.77F
PICKLE LAKE    PTCLDY    52  48  87 S8        29.83
DRYDEN         CLEAR     57  55  94 SW5       29.83F
KENORA         PTCLDY    59  57  94 S6        29.85S
$$
                *** MANITOBA***

CITY           SKY/WX    TMP DP  RH WIND       PRES   REMARKS
BRANDON        MOCLDY    45  39  81 N5        29.93R
DAUPHIN        CLOUDY    43  39  87 W7        29.93F
ISLAND LAKE    MOCLDY    52  50  93 W10       29.84R
PILOT MOUND      N/A     46  43  87 N8          N/A
THE PAS        PTCLDY    45  39  81 NW14      29.94R
THOMPSON       FOG       41  39  93 W7        29.84  VSB 1/2
WINNIPEG       PTCLDY    48  46  93 NW5       29.89R
LYNN LAKE      CLOUDY    37  37 100 N9G17     29.93R
CHURCHILL      LGT RAIN  45  45 100 NE17      29.78R
GILLAM         PTCLDY    46  43  87 W12       29.78R
$$
                ***SASKATCHEWAN***

CITY           SKY/WX    TMP DP  RH WIND       PRES   REMARKS
ESTEVAN        LGT RAIN  43  41  93 NW5       29.96R
KINDERSLEY     CLOUDY    39  37  93 NW3       30.06R
LLOYDMINSTER   PTCLDY    39  39 100 N6        30.08R
PRINCE ALBERT  CLOUDY    39  37  93 W2        30.04R FOG
REGINA         MOCLDY    36  34  93 NW5       29.99F
YORKTON        MOCLDY    39  37  93 CALM      29.96S
N. BATTLEFORD  CLOUDY    39  37  93 NW8       30.06F
LA RONGE       CLOUDY    39  37  93 NW8       30.02R
SASKATOON      MOCLDY    37  37 100 NW5       30.05R
SWIFT CURRENT  CLOUDY    37  36  93 W9        30.02R
$$
NOTE: THESE ARE AUTOMATED STATIONS WITH LIMITED QUALITY CONTROL
      "FAIR" INDICATES FEW OR NO CLOUDS BELOW 12,000 FEET WITH NO
      SIGNIFICANT WEATHER AND/OR OBSTRUCTIONS TO VISIBILITY.
      SKY/WX - SKY CONDITION AND SIGNIFICANT WEATHER.
      TMP - AIR TEMPERATURE.    DP   - DEWPOINT TEMPERATURE.
      RH  - RELATIVE HUMIDITY.  PRES - PRESSURE.
      HX  - HEAT INDEX.         WCI  - WIND CHILL INDEX.
$




USA.gov is the U.S. government's official web portal to all federal, state and local government web resources and services.